1438 visiteurs
Prévisions de votre ville :
Vigilance : 65 départements le 25/01/21 à 10:00 - Voir la carte - Être alerté(e)

Paris Roissy CDG (95380) le 25/01/21 à 13:30 Choisir station

4°C 75 % NNO Vit. moyenne 26 km/h
Commentez les publis

Relevés météo quotidiens pour la station de :

UTC
S: Synop
M: Metar
Loc T°C
(°C)
Td
(°C)
HR
(%)
Vis
(km)
Néb
(octa)
Vent
(km/h)
Pression
(mb)
Précipitations
(mm)
Temps
              MOY
10 min
DIR RAF 1h MESURE VAR SUR 3h    
S 00 h 01h 13.0 5.6 61 - 26 65 1016.9 -1.2/3h 0.0/6h - 0.0/3h -
S 01 h 02h 13.4 5.3 58 - 41 72 1015.5 -2.6/3h 0.0/1h -
S 02 h 03h 13.7 4.6 54 - 29 83 1014.7 -2.7/3h 0.0/1h -
S 03 h 04h 13.9 4.2 52 15 3/8 19 83 1014.3 -2.5/3h 0.0/3h
S 04 h 05h 13.7 6.5 62 - 39 61 1013.8 -1.7/3h 0.0/1h -
S 05 h 06h 13.5 9.0 74 - 70 111 1011.6 -3.0/3h 0.0/1h -
S 06 h 07h 13.7 9.3 75 15 3/8 68 140 1010.8 -3.4/3h 0.0/12h - 0.0/3h
S 07 h 08h 13.5 9.7 78 - 67 131 1011.5 -2.2/3h 0.0/1h -
S 08 h 09h 13.6 10.4 81 - 83 131 1011.2 -0.4/3h 0.0/1h -
S 09 h 10h 14.2 9.8 75 15 5/8 67 131 1011.5 +0.7/3h 0.0/3h
S 10 h 11h 14.0 10.2 78 - 68 133 1011.9 +0.4/3h 0.0/1h -
S 11 h 12h 14.3 10.3 77 - 87 137 1010.8 -0.4/3h 0.0/1h -
S 12 h 13h 14.3 10.7 79 15 5/8 83 143 1009.3 -2.2/3h 0.0/6h - 0.0/3h
S 13 h 14h 14.6 9.6 72 - 83 146 1008.9 -3.0/3h 0.0/1h -
S 14 h 15h 14.7 9.3 70 - 85 139 1009.0 -1.8/3h 0.0/1h -
S 15 h 16h 15.3 7.8 61 15 5/8 72 137 1008.8 -0.4/3h 0.0/3h
S 16 h 17h 14.3 7.8 65 - 87 150 1007.9 -1.0/3h 0.0/1h -
S 17 h 18h 13.5 9.0 74 - 83 161 1007.8 -1.2/3h 0.0/1h -
S 18 h 19h 13.3 9.2 76 - 100 170 1007.1 -1.8/3h 0.0/12h - 0.0/3h -
S 19 h 20h 13.5 8.3 71 - 104 162 1007.1 -0.8/3h 0.0/1h -
S 20 h 21h 13.5 9.0 74 - 94 178 1009.1 +1.3/3h 0.0/1h -
S 21 h 22h 13.8 8.8 72 - 94 169 1009.7 +2.6/3h 0.0/3h -
S 22 h 23h 13.5 9.0 74 - 96 148 1009.1 +2.0/3h 0.0/1h -
S 23 h 00h 13.3 9.2 76 - 90 137 1011.0 +1.9/3h 0.0/1h -
evolution des temperatures
cumul des precipitations
vent moyen et rafales
pression atmospherique

Un tiret (-) signifie que les données ne sont pas disponibles.

Passez la souris sur les pictos temps pour avoir plus de précisions. Passez les flèches sur l'icône de la direction du vent pour voir la direction précise en degrés.

Les données de l'heure en cours sont disponibles à partir de H+15 minutes.


S signifie station Synop, plus complète qu'une station Metar (M). Il y a +1h de différence entre l'heure UTC et l'heure légale en hiver et +2h en été.

Td est la mesure du point de rosée.

HR est l'humidité relative/p>

Vis est la visibilité

Néb est la nébulosité du ciel (couverture nuageuse) exprimée en octas (de 0/8 à 8/8).

Vent moy 10 min donne le vent moyen sur les 10 minutes qui précèdent le relevé.

Vent raf 1h donne la rafale maximale mesurée dans l'heure qui précède le relevé.


Les données les plus anciennes remontent à avril 2014.

Les données présentées sur cette page proviennent des stations météo officielles. Les relevés sont effectués aux normes en vigueur (anémomètre à 10m de haut, thermomètre sous abri normalisé à 2m du sol...)

Météo 60 décline toute responsabilité en cas d'absence de données, d'erreurs, de mauvaise utilisation ou interprétation et n'est pas habilité à fournir des certificats intempéries.